Location: Bakov nad Jizerou
(50.4784°N, 14.9394°E)
Time: 12:00:05
(UTC+00:00)

Daily predictions for brighter satellites

Satellite Brightness Start Highest point End
(mag) Time Altitude Azimuth Time Altitude Azimuth Time Altitude Azimuth
Cosmos 1674 Rocket 4.3 19:51:09 10° SSW 19:55:30 58° WNW 19:59:50 10° N
Cosmos 1626 3.8 19:53:34 10° SE 19:56:13 19° E 19:58:51 10° NE
ERS-2 4.4 19:53:31 10° N 19:56:43 29° WNW 19:59:55 10° SW
SL-8 R/B 3.8 19:53:03 10° W 19:57:49 65° S 20:02:34 10° ESE
SPOT 3 Rocket 4.0 19:53:49 10° S 19:58:56 62° WSW 20:04:06 10° NNW
Landsat 7 4.4 19:55:55 10° S 20:00:36 59° W 20:05:20 10° NNW
Cosmos 1741 Rocket 4.1 19:56:03 10° NNW 20:01:20 75° ENE 20:06:37 10° SSE
Cosmos 2100 Rocket 4.3 19:56:43 10° N 20:03:04 61° ENE 20:09:19 10° SSE
USA 238 DEB 3.8 19:58:05 10° SW 20:04:41 87° NW 20:11:41 10° NE
USA 238 3.8 19:58:11 10° SW 20:04:47 88° NW 20:11:47 10° NE
ATLAS CENTAUR R/B 2.7 20:01:04 10° NNW 20:05:00 36° NE 20:09:09 10° ESE
SL-16 R/B 2.2 20:00:26 10° SSW 20:06:04 73° ESE 20:11:45 10° NNE
KORONAS-FOTON 4.3 20:02:35 10° SSE 20:06:10 41° E 20:09:45 10° NNE
Cosmos 2360 Rocket 2.8 20:02:44 10° S 20:07:53 37° ESE 20:13:02 10° NE
Cosmos 2322 Rocket 2.3 20:03:22 10° SSW 20:08:58 62° ESE 20:14:38 10° NE
CZ-2C R/B 3.8 20:05:57 10° NNE 20:10:46 84° ESE 20:15:32 10° SSW
ARIANE 5 R/B 2.7 20:06:40 10° SSE 20:11:06 77° ENE 20:15:37 10° NNW
Genesis I 3.2 20:08:21 10° SW 20:12:13 83° SE 20:16:12 10° NE
Meteor 1-16 Rocket 4.2 20:08:11 10° N 20:13:45 74° ENE 20:19:06 10° SSE
Cosmos 1470 4.3 20:10:48 10° NNW 20:14:26 35° W 20:18:03 10° SSW
CENTAUR R/B 2.8 20:10:27 10° SW 20:16:32 81° NW 20:23:55 10° NE
Cosmos 2173 Rocket 4.1 20:16:24 10° N 20:22:48 77° E 20:29:12 10° SSE
COSMOS 2428 4.3 20:19:12 10° SE 20:22:51 18° E 20:26:30 10° ENE
Cosmos 1315 Rocket 4.5 20:21:12 10° NNW 20:24:55 32° W 20:28:37 10° SSW
Cosmos 2016 Rocket 4.2 20:19:37 10° N 20:25:37 56° ENE 20:31:26 11° SSE
Cosmos 1674 2.6 20:23:20 10° S 20:27:02 71° E 20:30:44 10° NNE
Cosmos 1544 Rocket 3.8 20:22:46 10° N 20:27:14 61° ENE 20:31:23 11° SSE
Cosmos 2237 4.3 20:22:12 10° SSW 20:27:48 62° ESE 20:33:26 10° NE
Cosmos 1980 Rocket 4.3 20:22:51 10° WSW 20:27:52 32° NW 20:32:53 10° NNE
H-2A R/B 4.4 20:26:06 10° NNE 20:29:44 30° E 20:32:58 12° SSE
Cosmos 2278 Rocket 3.8 20:25:27 10° NNW 20:30:10 26° NE 20:34:52 10° E
Cosmos 1455 Rocket 3.2 20:27:47 10° NNW 20:32:15 78° W 20:36:42 10° S
NOSS 8 (A) 4.0 20:29:01 10° SSW 20:32:16 64° SE 20:35:09 10° NE
Cosmos 1300 3.7 20:29:11 10° N 20:32:40 33° ENE 20:35:40 13° SE
USA 267 3.8 20:28:49 10° E 20:35:14 61° NNE 20:41:40 10° WNW
Cosmos 1727 Rocket 4.3 20:29:47 10° SSW 20:36:05 72° WNW 20:42:23 10° N
Cosmos 1725 Rocket 4.2 20:30:53 10° N 20:37:01 59° ENE 20:42:36 12° SSE
Cosmos 1110 Rocket 4.1 20:36:38 10° S 20:41:42 60° ESE 20:46:51 10° NNE
Cosmos 1844 Rocket 2.8 20:36:52 10° NNW 20:42:34 75° WSW 20:47:39 13° SSE
BREEZE-M DEB (TANK) 3.1 20:41:42 10° SW 20:44:19 45° SSE 20:50:13 10° ENE
Meteor 2-5 Rocket 4.3 20:42:18 13° SSE 20:46:52 39° E 20:52:01 10° NNE
Cosmos 968 Rocket 4.2 20:44:13 10° NNW 20:49:08 44° ENE 20:53:31 13° SE
Cosmos 1802 Rocket 4.1 20:43:38 10° N 20:49:55 87° W 20:55:59 11° S
Cosmos 1908 3.8 20:46:55 10° NNW 20:50:44 54° W 20:54:25 10° S
Cosmos 2263 Rocket 4.5 20:51:21 10° WNW 20:54:37 16° W 20:57:53 10° SW
Cosmos 1340 2.9 20:51:54 15° S 20:54:52 51° E 20:58:33 10° NNE
Cosmos 1900 4.3 20:50:34 10° NW 20:55:30 79° SW 20:59:24 16° SSE
Lacrosse 5 rocket 1.7 20:52:38 10° SSW 20:55:56 32° SE 20:59:10 10° ENE
SPOT 5 3.5 20:53:08 10° S 20:58:12 56° W 21:03:04 10° NNW
Cosmos 405 2.9 20:56:15 10° N 20:59:43 76° ENE 21:02:06 19° SSE
GEOS 3 Rocket 3.9 20:54:56 11° SE 21:00:03 70° NE 21:05:23 10° NW
Cosmos 1536 Rocket 3.8 20:58:17 15° S 21:01:55 56° E 21:06:18 10° NNE
DNEPR-1 R/B 3.5 20:58:40 10° NW 21:02:56 88° ENE 21:06:15 17° SE
Cosmos 1452 Rocket 4.4 20:58:27 10° SW 21:03:36 53° WNW 21:08:48 10° NNE
Cosmos 2333 4.4 20:58:43 10° S 21:04:19 56° ESE 21:09:56 10° NE
Terra 2.2 21:06:08 13° S 21:10:16 58° W 21:15:00 10° NNW
Resurs 01 Rocket 4.4 21:09:18 10° WSW 21:10:31 11° W 21:11:45 10° WNW
Cosmos 1953 3.9 21:07:33 10° NNW 21:11:09 31° W 21:14:45 10° SSW
Lacrosse 5 4.0 21:09:57 10° W 21:12:44 15° WSW 21:15:31 10° SSW
Cosmos 2333 Rocket 2.4 21:09:02 10° S 21:14:38 56° ESE 21:20:15 10° NE
Cosmos 1025 Rocket 3.5 21:10:26 10° SSW 21:14:47 63° WNW 21:19:08 10° N
SL-14 R/B 3.4 21:17:35 13° SSW 21:21:06 79° WNW 21:25:10 10° N
Cosmos 2228 3.4 21:17:22 10° N 21:21:43 53° ENE 21:24:34 20° SSE
FALCON 9 DEB 3.0 21:20:20 10° SW 21:23:43 65° SSE 21:27:06 10° ENE
Cosmos 2061 Rocket 4.4 21:17:45 10° NNW 21:24:07 65° W 21:29:43 14° S
Cosmos 1844 4.4 21:20:54 10° NW 21:26:08 43° WSW 21:30:18 16° S
ATLAS 3B R/B 2.7 21:20:16 10° SSW 21:26:41 60° SE 21:33:20 10° NE
Cosmos 1461 4.4 21:25:11 10° WNW 21:28:36 24° WSW 21:30:58 15° SSW
ERS-1 Rocket 4.4 21:24:55 10° SSW 21:29:22 31° W 21:33:51 10° NNW
Cosmos 1331 Rocket 4.4 21:24:19 10° SW 21:29:31 66° WNW 21:34:49 10° NNE
Cosmos 2219 Rocket 2.3 21:24:39 12° SSW 21:29:50 63° ESE 21:35:28 10° NE
Cosmos 1626 3.4 21:27:43 10° SW 21:31:10 37° WNW 21:34:39 10° N
Meteor 2-10 Rocket 3.5 21:29:14 10° N 21:34:24 78° ENE 21:37:47 21° SSE
Meteor 1-24 Rocket 3.6 21:30:58 17° S 21:35:06 75° E 21:40:35 10° NNE
Cosmos 2123 Rocket 4.4 21:34:22 10° SSW 21:40:37 64° WNW 21:46:55 10° N
BREEZE-M DEB (TANK) 2.4 21:39:08 10° SW 21:42:00 58° SSE 21:48:59 10° ENE
USA 215 3.3 21:36:32 10° ENE 21:42:59 57° SE 21:49:24 10° SW
ATLAS CENTAUR R/B 2.1 21:39:52 10° NW 21:43:59 44° WSW 21:46:25 23° S
Cosmos 2237 Rocket 3.3 21:42:21 19° SE 21:44:59 28° ESE 21:49:40 10° NE
FALCON 9 DEB 3.4 21:44:47 33° SSE 21:45:05 34° SSE 21:47:56 10° E
Cosmos 2058 Rocket 4.0 21:41:25 10° N 21:45:38 39° ENE 21:48:18 19° SE
FALCON 9 DEB 3.9 21:47:54 28° SE 21:47:54 28° SE 21:50:15 10° E
Cosmos 1302 Rocket 4.0 21:42:29 11° SSW 21:47:34 85° WNW 21:52:51 10° NNE
Cosmos 2233 Rocket 4.2 21:42:18 10° NNW 21:48:24 69° W 21:53:02 18° S
Cosmos 1867 3.6 21:42:52 10° NW 21:48:24 86° SW 21:52:15 20° SE
Iridium 2 4.0 21:48:10 26° SSE 21:49:55 49° E 21:53:34 10° NNE
SL-16 R/B 4.3 21:45:57 10° W 21:50:45 27° NW 21:55:34 10° NNE
Cosmos 2360 Rocket 3.3 21:46:23 10° SW 21:51:48 45° NW 21:57:14 10° NNE
Cosmos 2322 Rocket 4.1 21:48:23 10° WSW 21:53:26 31° NW 21:58:30 10° NNE
FALCON 9 DEB 3.3 21:53:44 36° SSE 21:54:07 38° SSE 21:57:03 10° ENE
Cosmos 1447 Rocket 4.5 21:50:21 18° S 21:55:08 86° E 22:01:22 10° N
Spot 4 3.8 21:52:23 23° SSE 21:55:23 87° ENE 22:00:12 10° NNW
Centaur D AC-29 4.5 21:51:04 10° WSW 21:55:59 12° SW 21:59:09 10° SSW
Cosmos 1726 Rocket 3.6 21:51:31 10° N 21:56:01 76° E 21:58:33 25° SSE
Cosmos 1455 2.3 21:56:58 10° N 22:00:47 65° ENE 22:02:38 28° SSE
Cosmos 389 Rocket 2.6 21:58:37 10° NNW 22:02:01 63° W 22:03:30 30° S
NOSS 0 Rocket 4.2 22:01:25 21° S 22:05:25 51° ESE 22:11:27 10° NE
COSMOS 2428 2.7 22:01:02 12° SSW 22:06:20 89° WNW 22:12:08 10° NNE
CENTAUR R/B 4.5 22:02:18 10° W 22:08:20 36° NNW 22:15:23 10° NE
Meteor 1-4 Rocket 4.3 22:06:01 10° NNE 22:08:54 23° ENE 22:10:44 16° ESE
Cosmos 2322 4.1 22:03:48 10° SW 22:09:24 64° WNW 22:15:03 10° NNE
Cosmos 1606 Rocket 3.8 22:05:33 10° NNW 22:09:59 64° W 22:12:29 25° S
ALOS 2 2.6 22:11:48 26° SSE 22:14:13 78° ENE 22:18:38 10° NNW
Cosmos 1892 Rocket 3.6 22:12:19 27° S 22:14:38 69° E 22:19:05 10° NNE
Cosmos 2278 Rocket 2.2 22:09:12 10° NNW 22:14:53 78° WSW 22:18:27 24° SSE
COBE Rocket 3.9 22:12:19 25° SSE 22:15:22 87° WSW 22:20:22 10° NNW
SJ 16-02 3.3 22:12:32 10° N 22:16:05 23° NE 22:19:36 10° ESE
Cosmos 1486 Rocket 4.4 22:12:49 10° NNW 22:17:53 51° WSW 22:20:48 24° S
USA 267 3.2 22:12:28 14° SE 22:18:12 71° SW 22:24:46 10° WNW
Cosmos 1346 Rocket 3.3 22:19:17 21° SSW 22:21:47 56° WNW 22:25:46 10° N
SL-4 R/B 3.1 22:30:03 23° SE 22:30:03 23° SE 22:32:26 10° E
Cosmos 1354 Rocket 4.0 22:25:32 10° NNW 22:30:54 77° WSW 22:34:00 26° SSE
Cosmos 1464 Rocket 4.0 22:25:52 10° N 22:32:15 83° W 22:36:22 24° S
Lacrosse 5 rocket 1.8 22:31:20 10° WSW 22:34:53 53° NNW 22:38:24 10° NE
Cosmos 1992 Rocket 4.1 22:32:39 19° SSW 22:36:29 77° WNW 22:41:45 10° NNE
MTI 3.9 22:33:38 10° NNE 22:36:38 52° E 22:37:18 41° SSE
Cosmos 1184 Rocket 2.7 22:38:30 40° SSW 22:39:34 87° WNW 22:42:50 10° NNE
Cosmos 1607 4.0 22:37:26 10° NW 22:43:49 66° SW 22:47:53 23° SSE
Cosmos 2346 Rocket 4.4 22:40:51 24° S 22:44:44 84° E 22:50:57 10° N
Cosmos 1626 Rocket 4.0 22:43:28 28° SSE 22:45:34 52° E 22:49:54 10° NNE
Meteor 2-1 Rocket 4.2 22:40:11 10° NNW 22:45:41 71° W 22:48:54 25° S
Aureole 3 4.3 22:48:03 10° N 22:51:19 36° ENE 22:53:35 20° SE
Cosmos 1703 3.2 22:49:57 32° SSW 22:51:42 87° WNW 22:55:40 10° N
Cosmos 1602 Rocket 4.3 22:49:55 26° SSE 22:52:02 44° E 22:56:19 10° NNE
Cosmos 1441 Rocket 3.1 22:52:52 33° SSW 22:54:31 89° W 22:58:23 10° NNE
Cosmos 1980 3.7 22:50:46 21° SSW 22:54:42 89° ESE 23:00:27 10° NNE
Cosmos 1816 Rocket 4.5 22:52:10 24° S 22:55:57 74° E 23:02:05 10° NNE
Cosmos 192 4.3 22:54:34 26° SSW 22:57:23 83° ESE 23:02:21 10° NNE
FALCON 9 DEB 2.7 22:56:15 20° WSW 22:58:18 85° SSE 23:01:27 10° ENE
Cosmos 2333 Rocket 3.8 22:54:01 10° WSW 22:59:13 34° NW 23:04:25 10° NNE
Cosmos 1943 Rocket 2.7 22:53:52 10° NNW 22:59:17 54° NE 23:04:21 12° SE
FALCON 9 DEB 3.8 22:57:19 10° W 23:00:41 56° N 23:04:02 10° ENE
Cosmos 1328 3.7 22:59:39 34° S 23:01:15 76° E 23:05:09 10° NNE
Cosmos 2034 Rocket 4.1 22:59:28 10° NNW 23:05:38 67° W 23:09:25 24° S
BREEZE-M DEB (TANK) 2.4 23:00:44 10° WSW 23:06:44 50° SSE 23:09:17 10° E
Okean 1-7 Rocket 3.9 23:06:13 25° SSW 23:08:39 61° WNW 23:13:05 10° N
NOSS 3-1 (C) 4.2 23:09:27 23° SSE 23:11:49 32° ESE 23:17:10 10° NE
Resurs 1-4 Rocket 4.3 23:10:09 10° NE 23:13:05 15° E 23:16:00 10° ESE
SAR-Lupe-2 3.9 23:10:22 10° N 23:13:55 57° WNW 23:15:31 29° SW
Cosmos 2219 Rocket 3.9 23:09:12 10° WSW 23:14:13 31° NW 23:19:14 10° NNE
EO 1 Del DPAF 4.0 23:12:45 10° NNE 23:16:18 40° E 23:17:43 28° SSE
ATLAS 3B R/B 3.7 23:11:19 10° WSW 23:17:39 46° NNW 23:24:15 10° NE
Cosmos-2242 3.4 23:14:08 10° N 23:18:30 58° ENE 23:21:05 23° SSE
FALCON 9 DEB 3.2 23:17:29 10° W 23:20:34 66° NNW 23:23:40 10° ENE
USA 32 4.1 23:15:52 10° N 23:21:07 75° W 23:24:07 26° S
CZ-2D R/B 4.2 23:18:13 10° NE 23:21:25 16° E 23:24:36 10° SE
FALCON 9 DEB 3.0 23:19:53 10° WSW 23:23:00 72° NNW 23:26:07 10° ENE
SL-16 R/B 2.5 23:20:20 25° S 23:23:29 55° ESE 23:29:02 10° NE
Cosmos 1812 Rocket 3.5 23:21:45 10° NNW 23:26:07 73° W 23:28:14 29° S
USA 215 3.6 23:19:38 10° ENE 23:26:08 68° NNW 23:32:36 10° WSW
Cosmos 2237 Rocket 2.6 23:24:07 15° SW 23:28:41 59° NW 23:34:16 10° NNE
FALCON 9 DEB 3.3 23:26:35 10° W 23:29:41 63° NNW 23:32:46 10° ENE
ATLAS CENTAUR R/B 3.8 23:25:37 18° SW 23:30:18 75° SE 23:45:50 10° ENE
Tsikada Rocket 4.0 23:28:42 23° SSW 23:32:44 76° W 23:38:56 10° N
Thor Agena Rocket 3.7 23:27:53 10° NNE 23:33:09 71° WNW 23:36:27 23° SSW
SL-16 R/B 3.8 23:27:57 10° SE 23:33:32 37° ENE 23:39:08 10° N
GP-B 3.3 23:30:20 10° N 23:34:45 63° W 23:37:02 27° SSW
Cosmos 1825 4.1 23:33:53 14° SE 23:36:00 21° E 23:38:54 10° NE
Cosmos 2369 Rocket 2.8 23:32:16 10° NNW 23:37:57 58° NE 23:43:35 10° SE
MOZ.5/SAFIR/RUBIN 5/SL-8 4.5 23:38:41 14° SE 23:42:33 51° ENE 23:47:11 10° N
Meteor 1-4 Rocket 3.8 23:40:52 10° NW 23:43:52 27° W 23:44:51 23° WSW
Cosmos 2221 4.1 23:43:47 10° N 23:47:37 30° ENE 23:51:23 10° SE
SJ 16-02 1.6 23:50:41 10° NNW 23:54:56 50° WSW 23:57:01 27° SSW
